Location: Unspecified
(47.9110°N, 14.3980°E)
Time: 05:17:45
(UTC+00:00)

Cosmos 1666 - Pass Details

Date: 06 August 2020
Orbit: 498 x 519 km, 82.5° (Epoch: 19 September)

Event Time Altitude Azimuth Distance (km) Brightness Sun altitude
Exits shadow 21:36:58 24° 62° (ENE) 1,078 4.3 -22.6°
Drops below altitude 10° 21:39:09 10° 31° (NNE) 1,716 5.8 -22.7°
Sets 21:41:29 0° 20° (NNE) 2,608 7.0 -22.9°
